This is the latest recevied weather packets stored in our database for station/object I4GOS-3. If no packets are shown the sender has not sent any weather packets the latest 10 day(s).
| Time | Temp. | Humidity | Pressure | Rain* | Wind** | Luminosity | Snow |
|---|---|---|---|---|---|---|---|
| 1788081652 | 29.44° C | 39% | 1014.7 hPa | 0 mm | - | - | - |
| 1788081352 | 29.44° C | 37% | 1014.7 hPa | 0 mm | - | - | - |
| 1788081052 | 30° C | 37% | 1014.7 hPa | 0 mm | - | - | - |
| 1788080752 | 30° C | 34% | 1014.7 hPa | 0 mm | - | - | - |
| 1788080451 | 29.44° C | 33% | 1014.7 hPa | 0 mm | - | - | - |
| 1788079974 | 29.44° C | 34% | 1014.8 hPa | 0 mm | - | - | - |
| 1788079851 | 29.44° C | 34% | 1014.8 hPa | 0 mm | - | - | - |
| 1788079550 | 28.89° C | 36% | 1014.7 hPa | 0 mm | - | - | - |
| 1788079250 | 28.89° C | 35% | 1014.7 hPa | 0 mm | - | - | - |
| 1788078950 | 28.89° C | 36% | 1014.7 hPa | 0 mm | - | - | - |
| 1788078649 | 28.89° C | 36% | 1014.7 hPa | 0 mm | - | - | - |
| 1788078349 | 28.89° C | 36% | 1014.7 hPa | 0 mm | - | - | - |
| 1788078049 | 28.89° C | 36% | 1014.7 hPa | 0 mm | - | - | - |
| 1788077749 | 28.89° C | 36% | 1014.7 hPa | 0 mm | - | - | - |
| 1788077480 | 28.89° C | 36% | 1014.7 hPa | 0 mm | - | - | - |
| 1788077449 | 28.89° C | 36% | 1014.7 hPa | 0 mm | - | - | - |
| 1788077236 | 28.33° C | 36% | 1014.7 hPa | 0 mm | - | - | - |
| 1788077148 | 28.33° C | 36% | 1014.7 hPa | 0 mm | - | - | - |
| 1788076882 | 28.33° C | 36% | 1014.7 hPa | 0 mm | - | - | - |
| 1788076848 | 28.33° C | 36% | 1014.7 hPa | 0 mm | - | - | - |
| 1788076548 | 28.33° C | 36% | 1014.7 hPa | 0 mm | - | - | - |
| 1788076248 | 28.33° C | 36% | 1014.6 hPa | 0 mm | - | - | - |
| 1788075947 | 28.33° C | 35% | 1014.7 hPa | 0 mm | - | - | - |
| 1788075647 | 27.78° C | 34% | 1014.7 hPa | 0 mm | - | - | - |
| 1788075385 | 27.78° C | 34% | 1014.6 hPa | 0 mm | - | - | - |
* Rain latest hour (hover to see other rain measurements)
** Current wind speed in m/s (hover to see current wind gust speed)